Location: *
(46.1866°S, 178.5290°W)
Time: 05:25:39
(UTC+00:00)

CZ-4B R/B - Pass Details

Date: 23 September 2021
Orbit: 809 x 881 km, 99.1° (Epoch: 17 October)

Event Time Altitude Azimuth Distance (km) Brightness Sun altitude
Rises 08:01:41 0° 173° (S) 3,380 6.6 -22.5°
Reaches altitude 10° 08:04:15 10° 183° (S) 2,437 5.9 -22.9°
Maximum altitude 08:08:57 32° 244° (WSW) 1,380 4.9 -23.6°
Drops below altitude 10° 08:13:37 10° 305° (NW) 2,411 5.9 -24.3°
Sets 08:16:10 0° 314° (NW) 3,339 6.5 -24.7°
